EHI
0 0 0 0 0 0 0 0 0 0 0 0 0 0 1 0 1 2 4 4 4 4 4 4 2 1 2 2 2 2 3 3 3 3 2 1 2 3 2 1 1 0 0
0 0 0 0 0 1 1 1 1 0 0 0 0 1 2 1 1 3 4 5 5 4 4 4 3 2 1 2 2 2 2 2 2 1 1 1 2 4 4 3 1 0 0
0 0 0 0 0 1 2 2 2 1 0 1 1 3 4 3 3 3 5 6 5 4 4 4 4 3 2 2 2 2 2 1 0 0 0 0 1 4 5 3 1 0 0
0 0 0 0 0 1 2 2 2 1 0 1 2 4 5 5 4 4 5 6 4 2 2 3 2 2 3 3 3 3 3 2 1 0 0 0 0 2 3 2 1 1 1
0 0 0 0 0 0 1 1 1 0 0 1 1 3 5 4 3 3 3 3 2 1 1 1 0 1 1 2 3 3 4 2 1 0 0 0 0 0 1 1 1 2 2
0 0 0 1 1 0 0 0 0 0 0 0 0 1 2 2 1 1 1 1 0 0 0 0 0 0 1 1 1 1 2 1 0 0 0 0 0 0 0 0 1 2 2
0 0 0 1 2 1 1 1 1 1 0 0 0 0 1 1 0 0 0 0 0 0 0 0 0 0 0 0 0 0 0 0 0 0 0 0 0 0 0 0 0 1 1
0 0 0 1 2 2 2 2 2 2 1 0 0 0 0 0 0 0 0 0 0 0 0 0 0 0 0 0 0 0 0 0 0 0 0 0 0 0 0 0 0 0 0
0 0 0 0 1 1 1 2 3 2 1 0 0 0 0 0 0 0 0 0 0 0 0 0 0 0 0 0 0 0 0 0 0 0 0 0 0 0 0 0 0 0 1
0 0 0 0 0 0 1 2 2 1 1 0 0 0 0 0 0 0 0 0 0 0 0 0 0 0 0 0 0 0 0 0 0 0 0 0 0 0 0 0 0 0 1
0 0 0 0 0 0 0 1 1 2 1 0 0 0 0 0 0 0 0 0 0 0 1 1 2 1 0 0 0 0 0 0 0 0 0 0 0 0 0 0 0 0 1
0 0 0 0 0 0 0 0 1 1 1 0 0 0 0 0 0 0 0 0 0 0 1 2 2 1 0 0 0 0 0 0 0 0 0 0 0 0 1 1 1 0 0
0 0 0 0 0 0 0 0 0 0 0 0 0 0 0 0 0 0 0 0 0 0 1 1 1 1 0 0 0 0 0 0 0 0 0 0 0 0 1 1 1 0 1
0 0 0 0 0 0 0 0 0 0 0 0 0 0 0 0 0 0 0 0 0 0 0 0 0 0 0 0 0 0 0 0 0 0 0 1 0 0 0 0 0 1 2
0 0 0 0 0 0 0 0 0 0 0 0 0 0 0 0 0 0 0 0 0 0 0 0 0 0 0 0 0 0 0 0 0 0 0 0 0 0 0 0 0 1 2
0 0 0 0 0 0 0 0 0 0 0 0 0 0 0 0 0 0 0 0 0 0 0 0 0 0 0 0 0 0 0 0 0 0 0 0 0 0 0 0 0 0 1
0 0 0 0 0 0 0 0 0 0 0 0 0 0 0 0 0 0 0 0 0 0 0 0 0 0 0 0 0 0 0 0 0 0 0 0 0 0 0 0 0 0 0
0 0 0 0 0 0 0 0 0 0 0 0 0 0 0 0 0 0 0 0 0 0 0 0 0 0 0 0 0 0 0 0 0 0 0 0 0 0 0 0 0 0 0
0 1 1 1 1 0 0 0 0 0 0 0 0 0 0 0 0 0 0 0 0 0 0 0 0 0 0 0 0 0 0 0 0 0 0 0 0 0 0 0 0 0 0
1 2 3 2 1 0 0 0 0 0 0 0 0 0 0 0 0 0 0 0 0 0 0 0 0 0 0 0 0 0 0 0 0 0 0 0 0 0 0 0 0 0 0
1 2 3 2 1 0 0 0 0 0 0 0 0 0 0 0 0 0 0 0 0 0 0 0 0 0 0 0 0 0 0 0 0 0 0 0 0 0 0 0 0 0 0
0 1 2 2 1 0 0 0 0 0 0 0 0 0 0 0 0 0 0 0 0 0 0 0 0 0 0 0 0 0 0 0 0 0 0 0 0 0 0 0 0 0 0
0 1 1 1 0 0 0 0 0 0 0 0 0 0 0 0 0 0 0 0 0 0 0 0 0 0 0 0 0 0 0 0 0 0 0 0 0 0 0 0 0 0 0
0 0 0 0 0 0 0 0 0 0 0 0 0 0 0 0 0 0 0 0 0 0 0 0 0 0 0 0 0 0 0 0 0 0 0 0 0 0 0 0 0 0 0
0 0 0 0 0 0 0 0 0 0 0 0 0 0 0 0 0 0 0 0 0 0 0 0 0 0 0 0 0 0 0 0 0 0 0 0 0 0 0 0 0 0 0
0 0 0 0 0 0 0 0 0 0 0 0 0 0 0 0 0 0 0 0 0 0 0 0 0 0 0 0 0 0 0 0 0 0 0 0 0 0 0 0 0 0 0
Wind_Speed
1 1 4 6 7 8 8 8 9 10 10 10 10 11 11 10 10 10 10 11 11 11 11 10 10 10 10 10 10 10 9 9 9 9 9 8 8 9 8 8 8 5 9
2 1 5 6 6 8 8 8 9 9 10 11 10 10 10 10 11 10 10 11 11 11 11 11 10 10 10 10 10 10 9 9 9 8 8 7 8 8 8 8 8 6 9
3 2 4 7 7 8 9 9 9 10 11 11 11 11 11 11 11 11 12 11 11 12 11 11 10 10 10 10 10 9 9 9 8 8 7 4 5 8 8 8 8 8 8
4 3 4 7 8 9 9 10 10 10 11 12 12 11 11 11 11 11 12 12 11 11 11 11 10 10 10 10 9 9 9 8 8 8 4 3 3 8 8 8 8 8 8
4 3 4 8 8 9 9 10 10 10 11 11 11 11 11 12 12 11 11 11 11 11 11 10 10 10 9 9 9 9 9 9 8 6 4 3 3 7 8 8 7 7 8
4 3 4 8 8 8 9 10 10 10 11 11 11 11 11 11 11 11 11 11 11 11 10 10 9 9 9 9 9 9 9 9 7 4 4 3 3 7 8 7 7 8 8
4 3 4 8 8 8 9 9 9 10 10 11 11 11 10 11 11 11 10 10 10 10 10 9 9 9 9 9 9 9 9 9 5 4 3 3 4 7 8 7 8 8 8
5 3 4 7 8 8 9 9 9 10 10 10 11 11 11 10 10 9 10 10 10 10 10 9 9 9 9 9 9 9 9 8 6 5 3 3 6 8 8 8 8 8 8
4 4 2 3 4 7 8 8 8 9 9 9 10 10 10 10 9 10 10 10 10 10 10 9 9 8 8 8 9 9 9 9 4 2 3 2 7 8 8 8 8 9 9
4 3 3 2 2 2 3 6 7 8 8 9 9 9 9 9 9 10 10 10 10 10 9 9 9 8 8 9 9 9 9 7 4 3 2 3 8 8 8 8 9 9 9
3 2 3 2 2 2 2 3 5 6 6 6 6 8 7 5 5 6 8 10 10 10 10 10 9 9 9 9 9 9 7 3 3 2 2 6 8 8 8 8 9 9 9
3 3 3 3 2 1 2 2 2 2 3 3 3 3 3 3 4 5 7 9 9 9 9 9 9 9 7 4 6 7 3 4 3 2 3 8 8 8 8 9 9 9 9
4 4 3 3 2 2 2 2 1 1 2 2 3 3 3 3 3 3 3 4 5 6 4 6 6 4 4 3 3 4 4 3 2 2 4 9 9 9 9 9 9 9 9
4 4 4 4 3 2 2 2 2 1 2 2 2 3 3 2 3 3 3 3 3 3 3 3 3 5 5 5 5 5 5 3 3 2 3 9 9 9 9 9 9 9 9
4 3 4 4 4 3 2 2 2 2 2 2 2 2 3 3 3 3 3 3 3 3 3 3 4 5 5 5 5 5 5 5 4 3 3 7 9 9 9 9 9 9 10
4 4 4 4 4 4 3 2 2 2 2 2 2 3 3 3 3 3 3 3 3 3 3 3 4 4 4 4 5 5 5 4 4 4 3 4 7 8 9 9 8 8 9
5 4 4 5 4 4 3 3 2 2 2 2 2 3 3 3 3 3 3 3 3 3 4 4 4 4 4 4 4 4 4 4 4 4 4 3 3 5 7 8 8 8 8
5 5 4 5 5 4 3 3 2 2 3 2 2 2 3 4 4 4 3 3 3 3 3 3 3 4 4 4 3 3 3 3 4 4 3 3 3 3 5 7 7 7 7
6 6 5 4 5 4 4 3 3 3 3 2 2 2 3 4 4 4 3 3 3 3 3 3 3 3 3 3 3 3 3 3 3 4 4 4 3 4 3 5 7 8 8
5 6 5 5 4 5 3 3 3 3 2 2 2 2 3 3 4 4 3 3 4 3 3 3 3 3 2 2 4 4 3 3 3 3 3 3 3 4 3 4 4 5 8
4 5 5 5 4 4 3 2 2 1 1 1 2 2 3 3 4 4 3 3 3 3 2 3 3 3 3 2 3 3 4 4 4 3 3 3 3 3 3 3 3 3 3
4 5 6 6 5 4 3 2 2 2 1 1 1 2 2 3 3 4 3 3 2 2 3 3 3 2 1 2 2 2 2 4 4 3 3 3 3 3 3 3 3 3 2
5 5 6 5 5 4 4 3 3 3 3 3 2 1 2 2 3 3 3 2 2 2 2 2 2 3 1 1 1 3 3 1 1 3 3 3 3 2 2 2 3 2 2
6 5 5 5 5 4 5 5 5 3 2 1 1 0 1 1 2 2 3 2 2 2 2 1 2 2 2 1 1 1 2 3 2 1 3 3 3 3 2 2 2 2 2
7 6 5 6 5 4 5 6 5 3 2 1 1 1 1 1 1 2 2 2 2 2 2 2 2 2 2 2 1 1 1 1 2 3 0 2 2 2 1 1 1 1 2
6 5 5 6 5 5 5 5 5 5 3 3 2 1 0 0 0 0 1 1 1 2 2 2 2 2 1 2 1 1 2 1 1 2 2 0 1 2 1 1 1 1 1
Wind_Direction
326 329 72 69 66 65 67 67 65 65 66 68 69 70 75 78 79 83 88 89 91 92 92 92 93 93 96 99 101 99 100 101 104 110 112 114 115 115 115 113 109 104 106
157 73 82 75 73 72 71 69 69 69 69 70 71 72 74 77 79 82 89 91 92 94 91 89 89 91 92 92 94 96 96 96 94 102 105 106 110 115 116 114 112 106 107
113 90 85 80 77 75 73 72 72 71 70 71 74 74 75 76 77 80 88 90 91 92 91 89 88 89 90 89 88 91 95 97 94 95 96 88 101 111 113 111 112 112 109
114 98 91 86 81 79 76 74 75 75 72 71 74 75 76 77 78 80 85 88 89 90 90 88 87 88 88 87 86 89 91 92 92 90 82 79 92 107 111 110 113 113 113
103 91 99 92 86 82 78 76 76 75 75 74 74 75 76 79 81 83 86 87 87 87 89 90 89 89 87 85 82 83 89 89 89 83 77 77 84 102 108 110 111 111 111
104 93 100 97 91 85 81 78 77 76 76 74 73 74 76 78 80 83 86 87 88 88 88 88 89 91 90 88 84 83 90 90 86 76 75 81 90 101 103 104 103 106 108
116 102 104 102 97 93 89 85 83 82 79 77 74 74 77 79 80 83 87 89 88 89 88 87 88 88 92 91 88 89 95 93 84 78 79 88 98 104 105 105 101 102 104
130 118 106 108 105 100 95 92 86 83 81 78 75 74 73 75 79 85 89 90 90 91 89 88 87 88 90 90 89 91 91 90 84 81 80 96 108 107 107 104 104 105 105
125 119 103 98 101 104 100 97 92 88 85 81 78 74 70 69 74 87 89 87 87 88 87 85 85 87 88 88 87 86 86 79 68 68 90 99 108 106 104 101 101 102 103
118 120 119 98 83 87 95 102 98 91 87 84 80 76 70 66 75 89 88 85 86 84 82 80 78 82 85 85 85 85 82 72 61 59 72 105 109 104 103 100 98 101 102
114 120 130 124 112 109 108 103 96 90 83 78 77 77 66 45 57 77 81 81 83 78 75 75 75 77 76 77 80 80 73 60 60 62 77 99 106 103 103 102 103 105 105
132 143 140 134 136 120 108 80 65 72 64 60 59 59 53 52 57 71 73 77 78 74 68 66 68 67 62 61 69 71 63 54 50 61 93 100 104 103 103 105 106 107 109
149 133 130 138 133 116 95 93 61 56 59 54 60 61 57 50 51 54 57 58 54 55 49 51 54 52 55 60 66 67 64 55 47 47 81 95 97 99 102 108 110 111 110
132 135 139 135 124 121 111 101 86 71 63 61 64 83 78 66 59 56 58 51 46 46 52 52 57 55 58 64 75 76 68 62 57 49 76 92 93 93 97 101 103 101 102
129 135 144 134 131 128 117 112 101 84 83 84 72 75 82 82 74 64 58 53 48 55 65 65 64 63 62 65 73 81 77 70 59 52 61 83 85 86 90 99 102 100 97
144 146 143 133 135 126 116 112 107 95 87 78 76 78 82 84 84 78 71 61 53 56 66 74 71 69 67 67 66 68 73 72 62 56 49 68 80 81 84 91 101 99 102
159 153 141 136 130 126 118 115 106 99 94 83 73 75 84 90 93 89 78 65 55 58 65 68 62 63 66 64 60 62 69 66 64 57 47 38 48 72 85 90 94 95 100
150 144 143 132 125 122 120 116 106 98 95 88 80 78 85 88 92 92 81 68 61 63 65 70 62 65 59 57 55 50 56 60 55 53 51 47 42 45 61 81 90 96 95
149 142 135 127 128 127 119 110 108 97 90 86 81 82 83 85 89 94 85 74 70 65 59 72 62 70 70 59 62 52 44 50 50 56 51 47 47 48 43 58 71 82 87
145 140 132 124 127 120 103 82 72 72 66 68 79 86 91 88 91 94 90 81 76 70 57 60 68 57 67 66 70 53 32 34 43 47 47 47 46 49 50 51 48 58 71
138 136 130 130 133 120 109 105 98 90 68 63 75 91 94 93 99 102 97 88 83 82 80 79 76 66 51 61 69 38 18 26 35 37 38 47 43 39 50 56 54 47 47
152 150 141 142 141 137 138 139 136 130 110 95 74 71 84 94 103 114 110 108 104 96 80 73 80 80 48 55 97 86 30 7 7 18 30 51 41 39 47 52 56 56 49
153 162 157 152 146 140 133 110 87 65 51 43 43 46 40 87 97 112 117 119 121 115 115 105 101 107 101 18 80 121 123 176 329 351 10 28 32 42 41 50 57 49 50
168 167 162 153 146 141 134 127 126 127 137 183 177 126 48 88 99 110 119 122 128 122 127 135 121 122 122 98 11 54 135 152 138 15 347 0 16 31 30 50 53 43 39
163 163 161 151 149 148 143 143 140 137 156 149 105 91 74 67 100 116 121 117 127 134 146 133 114 115 125 142 144 104 74 71 102 130 196 339 359 354 9 32 55 43 33
156 162 157 154 156 155 151 150 151 152 149 137 134 128 112 57 25 147 126 120 141 147 153 148 137 130 128 122 123 122 133 137 156 137 150 191 335 323 355 14 26 28 45